Location: S�tio Afonso Gruber
(26.1760°S, 49.5250°W)
Time: 14:16:27
(UTC+00:00)

Cosmos 2228 Rocket - Pass Details

Date: 07 June 2020
Orbit: 619 x 651 km, 82.5° (Epoch: 07 July)

Event Time Altitude Azimuth Distance (km) Brightness Sun altitude
Rises 07:57:28 0° 360° (N) 2,954 6.7 -26.9°
Reaches altitude 10° 07:59:43 10° 2° (N) 2,052 5.9 -26.4°
Maximum altitude 08:04:16 73° 86° (E) 687 3.3 -25.4°
Drops below altitude 10° 08:08:52 10° 170° (S) 2,075 5.7 -24.4°
Sets 08:11:08 0° 172° (S) 2,990 6.5 -23.9°
